DateTimeUTC,F1_A11,F1_S11,BsB_S11,BsG_S11,BsR_S11,BbsB_S11,BbsG_S11,BbsR_S11,BaB_A11,BaG_A11,BaR_A11,Tu_S11,T_S11,Uu_S11,U_S11,P_S11,T1_A11
2021-06-16T01:00:00Z,00000200,20000000,,,,,,,-000.04,0000.28,-000.06,18.1,25.0,01.5,01.0,0670.0,31.0
2021-06-16T01:01:00Z,00000200,20000000,,,,,,,-000.21,-000.43,-000.13,18.0,25.0,01.5,01.0,0670.0,31.0
2021-06-16T01:02:00Z,00000200,21000000,,,,,,,-000.18,-000.31,-000.21,18.0,25.0,01.4,00.9,0670.0,31.0
2021-06-16T01:03:00Z,00000200,61000000,,,,,,,0000.03,0000.19,-000.02,18.0,25.0,01.2,00.8,0670.0,31.0
2021-06-16T01:04:00Z,00000200,41000000,0000.65,0000.40,0000.28,0000.23,0000.02,-000.00,0000.23,0000.07,0000.49,18.0,24.8,01.3,00.9,0670.9,31.0
2021-06-16T01:05:00Z,00000200,01000000,0000.85,0000.33,0000.12,0000.11,0000.07,-000.13,0000.38,0000.66,0000.19,18.0,24.8,01.2,00.8,0671.0,31.0
2021-06-16T01:06:00Z,00000200,01000000,0000.13,0000.45,0000.44,0000.15,-000.02,0000.17,0000.36,0000.10,0000.13,18.0,24.7,01.2,00.8,0671.0,31.0
2021-06-16T01:07:00Z,00000200,01000000,0000.83,0000.23,0000.30,-000.04,-000.06,0000.14,-000.13,-000.00,0000.18,18.1,24.8,01.2,00.8,0670.9,31.0
2021-06-16T01:08:00Z,00000200,01000000,0000.19,0000.17,0000.46,-000.18,0000.00,-000.09,0000.15,0000.34,0000.18,18.1,24.8,01.2,00.8,0670.9,31.0
2021-06-16T01:09:00Z,00000200,01000000,0000.84,0000.67,0000.36,0000.09,0000.20,0000.09,-000.24,-000.36,-000.11,18.2,24.9,01.2,00.8,0671.0,31.1
2021-06-16T01:10:00Z,00000200,01000000,0000.51,0000.53,0000.33,0000.39,-000.07,-000.12,0000.74,0000.46,0000.59,18.3,24.9,01.2,00.8,0670.9,31.1
2021-06-16T01:11:00Z,00000200,01000000,0000.14,0000.50,0000.51,0000.20,0000.19,0000.08,-000.12,-000.08,-000.20,18.3,24.9,01.1,00.7,0670.9,31.1
2021-06-16T01:12:00Z,00000200,01000000,0000.99,0000.34,0000.07,0000.19,0000.00,0000.42,0000.13,0000.18,-000.02,18.3,24.9,01.1,00.7,0670.9,31.1
2021-06-16T01:13:00Z,00000200,01000000,0001.39,0000.51,0000.12,0000.78,0000.18,0000.13,0000.44,0000.58,0000.14,18.3,24.9,01.2,00.8,0670.9,31.1
2021-06-16T01:14:00Z,00000200,01000000,0000.87,0000.47,0000.29,-000.22,0000.15,0000.17,-000.10,-000.09,0000.21,18.2,24.9,01.2,00.8,0670.9,31.0
2021-06-16T01:15:00Z,00000200,01000000,0000.64,0000.60,0000.46,0000.19,-000.18,0000.34,0000.06,0000.19,0000.03,18.2,24.8,01.2,00.8,0670.9,31.0
2021-06-16T01:16:00Z,00000200,01000000,0000.37,0000.42,0000.38,-000.46,-000.06,-000.07,0000.06,-000.03,0000.24,18.1,24.8,01.2,00.8,0670.9,31.0
2021-06-16T01:17:00Z,00000200,01000000,0001.01,0000.20,0000.65,0000.69,-000.23,-000.11,0000.48,0000.14,-000.09,18.1,24.7,01.3,00.9,0670.9,31.0
2021-06-16T01:18:00Z,00000200,01000000,0000.60,0000.49,0000.26,0000.01,0000.08,-000.13,0000.10,0000.30,0000.32,18.0,24.7,01.4,00.9,0670.9,31.0
2021-06-16T01:19:00Z,00000200,01000000,0000.36,0000.52,0000.22,0000.49,-000.10,-000.07,0000.51,0000.23,0000.11,18.0,24.7,01.3,00.8,0670.9,31.0
2021-06-16T01:20:00Z,00000200,01000000,0000.50,0000.65,0000.23,0000.09,-000.21,0000.09,0000.29,0000.76,0000.43,18.0,24.7,01.4,00.9,0670.9,31.0
2021-06-16T01:21:00Z,00000200,01000000,0000.59,0000.42,0000.27,-000.17,0000.10,0000.07,0000.40,0000.11,0000.47,18.0,24.7,01.5,01.0,0670.9,31.0
2021-06-16T01:22:00Z,00000200,01000000,0000.25,0000.30,0000.19,0000.41,-000.16,0000.25,0000.45,0000.13,-000.04,18.1,24.7,01.6,01.0,0670.9,31.1
2021-06-16T01:23:00Z,00000200,01000000,0000.74,0000.37,0000.35,0000.22,-000.26,0000.16,0000.05,0000.57,0000.27,18.2,24.8,01.5,01.0,0670.9,31.0
2021-06-16T01:24:00Z,00000200,01000000,0000.75,0000.64,0000.38,0000.26,0000.49,-000.03,0000.33,0000.11,0000.05,18.2,24.8,01.5,01.0,0670.9,31.0
2021-06-16T01:25:00Z,00000200,01000000,0000.39,0000.49,0000.23,0000.37,-000.08,-000.12,0000.53,0000.26,-000.00,18.3,24.9,01.6,01.1,0670.9,31.1
2021-06-16T01:26:00Z,00000200,01000000,0001.15,0000.25,0000.41,0000.30,0000.08,-000.05,-000.00,0000.17,-000.10,18.3,24.9,01.6,01.1,0670.9,31.0
2021-06-16T01:27:00Z,00000200,01000000,0000.57,0000.51,0000.30,-000.04,0000.33,-000.11,0000.11,0000.06,0000.42,18.2,24.8,01.7,01.1,0670.9,31.0
2021-06-16T01:28:00Z,00000200,01000000,0000.46,0000.57,0000.51,0000.13,-000.11,0000.23,0000.24,-000.14,-000.06,18.2,24.8,01.6,01.1,0670.9,31.0
2021-06-16T01:29:00Z,00000200,01000000,0000.43,0000.38,0000.46,0000.18,0000.06,0000.19,0000.11,0000.23,0000.17,18.1,24.8,01.6,01.1,0670.9,31.0
2021-06-16T01:30:00Z,00000200,01000000,0000.72,0000.25,-000.17,0000.19,0000.03,-000.20,-000.09,0000.18,0000.10,18.1,24.8,01.6,01.1,0670.9,31.0
2021-06-16T01:31:00Z,00000200,01000000,0000.54,0000.67,0000.03,0000.58,-000.05,-000.12,-000.07,-000.03,0000.04,18.1,24.7,01.6,01.1,0670.9,31.0
2021-06-16T01:32:00Z,00000200,01000000,0000.55,0000.42,0000.42,0000.57,-000.10,0000.15,0000.42,0000.15,-000.12,18.0,24.7,01.6,01.0,0670.9,31.0
2021-06-16T01:33:00Z,00000200,01000000,0000.72,0000.85,0000.20,0000.05,-000.10,0000.05,0000.28,-000.00,0000.24,18.0,24.7,01.6,01.1,0670.9,31.0
2021-06-16T01:34:00Z,00000200,01000000,0000.81,0000.45,0000.04,0000.38,-000.13,-000.02,-000.04,-000.09,0000.25,17.9,24.6,01.6,01.1,0670.8,31.0
2021-06-16T01:35:00Z,00000200,01000000,0000.16,0000.30,0000.37,0000.24,0000.14,-000.05,0000.56,0000.82,0000.35,17.9,24.6,01.7,01.1,0670.8,31.0
2021-06-16T01:36:00Z,00000200,01000000,0000.94,0000.26,0000.10,0000.11,0000.19,-000.07,0000.45,0000.47,0000.27,18.0,24.6,01.6,01.0,0670.9,31.0
2021-06-16T01:37:00Z,00000200,01000000,0000.49,0000.40,0000.26,0000.41,0000.40,-000.00,0000.17,0000.11,0000.35,18.0,24.7,01.7,01.1,0670.9,31.0
2021-06-16T01:38:00Z,00000200,01000000,0000.63,0000.47,0000.31,-000.47,-000.08,-000.07,0000.48,0000.30,0000.04,18.1,24.7,01.8,01.2,0670.9,31.1
2021-06-16T01:39:00Z,00000200,01000000,0001.05,0000.19,0000.33,0000.22,0000.07,0000.11,-000.04,0000.27,0000.12,18.2,24.8,01.7,01.1,0670.9,31.1
2021-06-16T01:40:00Z,00000200,01000000,0000.73,0000.39,0000.66,0000.19,0000.16,-000.03,0000.30,0000.05,-000.17,18.2,24.8,01.7,01.2,0670.9,31.1
2021-06-16T01:41:00Z,00000200,01000000,0001.19,0000.39,0000.27,0000.28,-000.04,-000.09,0000.05,0000.14,0000.01,18.3,24.8,01.6,01.1,0670.9,31.1
2021-06-16T01:42:00Z,00000200,01000000,0000.75,0000.33,0000.29,0000.23,-000.09,0000.01,0000.50,0000.29,0000.68,18.3,24.9,01.8,01.2,0670.9,31.1
2021-06-16T01:43:00Z,00000200,01000000,0000.48,0000.71,-000.01,-000.12,-000.00,-000.08,-000.09,-000.04,-000.69,18.3,24.8,01.8,01.2,0670.9,31.0
2021-06-16T01:44:00Z,00000200,01000000,0000.51,0000.50,0000.31,0000.13,-000.01,0000.13,-000.20,0000.01,-000.11,18.2,24.8,01.7,01.2,0670.9,31.0
2021-06-16T01:45:00Z,00000200,01000000,0000.59,0000.49,0000.56,0000.58,-000.04,0000.28,0000.01,-000.14,0000.36,18.2,24.8,01.6,01.1,0670.9,31.0
2021-06-16T01:46:00Z,00000200,01000000,0000.62,0000.36,0000.31,-000.02,0000.05,-000.10,0000.36,-000.01,0000.34,18.1,24.7,01.6,01.1,0670.9,31.0
2021-06-16T01:47:00Z,00000200,01000000,0000.23,0000.35,0000.23,0000.47,0000.02,0000.02,-000.30,0000.22,0000.19,18.1,24.7,01.6,01.1,0670.8,31.0
2021-06-16T01:48:00Z,00000200,01000000,0001.07,0000.23,0000.39,0000.07,-000.11,0000.11,0000.51,0000.54,0000.19,18.0,24.7,01.6,01.1,0670.8,31.0
2021-06-16T01:49:00Z,00000200,01000000,0000.47,-000.01,0000.38,0000.12,-000.04,0000.07,0000.38,-000.08,0000.08,18.0,24.7,01.7,01.1,0670.8,31.0
2021-06-16T01:50:00Z,00000200,01000000,0000.23,0000.46,0000.44,-000.16,0000.03,-000.13,0000.15,0000.47,0000.12,18.0,24.7,01.6,01.1,0670.9,31.0
2021-06-16T01:51:00Z,00000200,01000000,0000.72,0000.29,0000.35,0000.43,0000.18,0000.04,0000.59,0000.65,0000.58,18.0,24.7,01.7,01.1,0670.9,31.0
2021-06-16T01:52:00Z,00000200,01000000,0000.63,0000.53,0000.28,-000.02,0000.12,-000.05,0000.46,0000.24,0000.13,18.1,24.7,01.8,01.2,0670.8,31.0
2021-06-16T01:53:00Z,00000200,01000000,0000.64,0000.10,0000.31,0000.06,0000.32,-000.09,-000.07,0000.14,0000.03,18.1,24.7,01.8,01.2,0670.9,31.0
2021-06-16T01:54:00Z,00000200,01000000,0000.54,0000.66,0000.03,0000.14,0000.12,-000.29,0000.15,-000.27,-000.12,18.2,24.8,01.7,01.2,0670.9,31.1
2021-06-16T01:55:00Z,00000200,01000000,0000.25,0000.49,0000.23,0000.24,0000.10,0000.17,-000.20,0000.27,0000.46,18.2,24.8,01.7,01.1,0670.9,31.1
2021-06-16T01:56:00Z,00000200,01000000,0000.81,0000.23,0000.37,0000.52,-000.18,-000.20,0000.33,0000.06,-000.20,18.3,24.8,01.7,01.1,0670.9,31.1
2021-06-16T01:57:00Z,00000200,40000000,,,,,,,0000.07,0000.13,-000.10,18.3,24.9,01.9,01.3,0670.9,31.0
2021-06-16T01:58:00Z,00000200,61000000,,,,,,,-000.29,-000.72,0000.04,18.0,24.9,01.5,01.0,0669.9,31.0
2021-06-16T01:59:00Z,00000200,20000000,,,,,,,-000.12,0000.29,-000.32,18.0,25.0,01.5,01.0,0669.9,31.0
